| time (UTC) | temp F | wind direction | speed MPH | gust MPH | rain 1hr in | rain 24hr in | rain mn in | humidity % | barometer mb |
| 20260906121723 | 70 | 124 | 0.0 | 0.0 | 0.00 | 0.00 | 0.00 | 99 | 1017.3 |
| 20260906121219 | 69 | 121 | 0.0 | 0.0 | 0.00 | 0.00 | 0.00 | 99 | 1017.1 |
| 20260906120714 | 69 | 121 | 0.0 | 2.0 | 0.00 | 0.00 | 0.00 | 99 | 1017.4 |
| 20260906120210 | 69 | 122 | 0.0 | 0.0 | 0.00 | 0.00 | 0.00 | 99 | 1017.1 |
| 20260906115706 | 69 | 122 | 0.0 | 0.0 | 0.00 | 0.00 | 0.00 | 99 | 1017.0 |
| 20260906115201 | 69 | 122 | 0.0 | 0.0 | 0.00 | 0.00 | 0.00 | 99 | 1017.1 |
| 20260906114700 | 69 | 122 | 0.0 | 0.0 | 0.00 | 0.00 | 0.00 | 99 | 1016.8 |
| 20260906114156 | 69 | 124 | 0.0 | 0.0 | 0.00 | 0.00 | 0.00 | 99 | 1016.8 |
| 20260906113655 | 69 | 121 | 1.0 | 1.0 | 0.00 | 0.00 | 0.00 | 99 | 1016.8 |
| 20260906113155 | 69 | 121 | 0.0 | 0.0 | 0.00 | 0.00 | 0.00 | 99 | 1016.8 |
| 20260906112654 | 69 | 121 | 0.0 | 0.0 | 0.00 | 0.00 | 0.00 | 99 | 1016.7 |
| 20260906112152 | 69 | 117 | 1.0 | 2.0 | 0.00 | 0.00 | 0.00 | 99 | 1016.6 |
| 20260906111650 | 69 | 124 | 0.0 | 1.0 | 0.00 | 0.00 | 0.00 | 99 | 1016.2 |
| 20260906111145 | 69 | 123 | 0.0 | 0.0 | 0.00 | 0.00 | 0.00 | 99 | 1016.4 |
| 20260906110640 | 69 | 120 | 1.0 | 2.0 | 0.00 | 0.00 | 0.00 | 99 | 1016.2 |
| 20260906110136 | 69 | 123 | 0.0 | 1.0 | 0.00 | 0.00 | 0.00 | 99 | 1016.2 |
| 20260906105629 | 69 | 121 | 0.0 | 1.0 | 0.00 | 0.00 | 0.00 | 99 | 1016.1 |
| 20260906105126 | 69 | 121 | 1.0 | 1.0 | 0.00 | 0.00 | 0.00 | 99 | 1015.9 |
| 20260906104625 | 69 | 121 | 0.0 | 2.0 | 0.00 | 0.00 | 0.00 | 99 | 1016.0 |
| 20260906104120 | 69 | 125 | 0.0 | 1.0 | 0.00 | 0.00 | 0.00 | 99 | 1015.9 |
| 20260906103618 | 69 | 122 | 0.0 | 1.0 | 0.00 | 0.00 | 0.00 | 99 | 1015.7 |
| 20260906103113 | 69 | 123 | 0.0 | 1.0 | 0.00 | 0.00 | 0.00 | 99 | 1015.6 |
| 20260906102608 | 69 | 124 | 0.0 | 3.0 | 0.00 | 0.00 | 0.00 | 99 | 1015.8 |
| 20260906102102 | 69 | 125 | 2.0 | 2.0 | 0.00 | 0.00 | 0.00 | 99 | 1015.6 |
| 20260906101557 | 69 | 121 | 1.0 | 2.0 | 0.00 | 0.00 | 0.00 | 99 | 1015.7 |
| 20260906101051 | 69 | 120 | 0.0 | 1.0 | 0.00 | 0.00 | 0.00 | 99 | 1015.8 |
| 20260906100548 | 69 | 120 | 1.0 | 1.0 | 0.00 | 0.00 | 0.00 | 99 | 1015.5 |
| 20260906100047 | 69 | 122 | 0.0 | 2.0 | 0.00 | 0.00 | 0.00 | 99 | 1015.6 |
| 20260906095547 | 69 | 125 | 0.0 | 0.0 | 0.00 | 0.00 | 0.00 | 99 | 1015.6 |
| 20260906095043 | 69 | 123 | 0.0 | 0.0 | 0.00 | 0.00 | 0.00 | 99 | 1015.4 |
| 20260906094541 | 69 | 124 | 0.0 | 0.0 | 0.00 | 0.00 | 0.00 | 99 | 1015.7 |
| 20260906094038 | 69 | 124 | 0.0 | 0.0 | 0.00 | 0.00 | 0.00 | 99 | 1015.6 |
| 20260906093533 | 68 | 124 | 0.0 | 0.0 | 0.00 | 0.00 | 0.00 | 99 | 1015.8 |
| 20260906093028 | 68 | 124 | 0.0 | 0.0 | 0.00 | 0.00 | 0.00 | 99 | 1015.6 |
| 20260906092523 | 68 | 124 | 0.0 | 0.0 | 0.00 | 0.00 | 0.00 | 99 | 1015.7 |
| 20260906092018 | 68 | 124 | 0.0 | 0.0 | 0.00 | 0.00 | 0.00 | 99 | 1015.7 |
| 20260906091514 | 68 | 124 | 0.0 | 0.0 | 0.00 | 0.00 | 0.00 | 99 | 1015.6 |
| 20260906091010 | 68 | 124 | 0.0 | 0.0 | 0.00 | 0.00 | 0.00 | 99 | 1015.8 |
| 20260906090511 | 68 | 124 | 0.0 | 0.0 | 0.00 | 0.00 | 0.00 | 99 | 1015.7 |
| 20260906090010 | 68 | 124 | 0.0 | 0.0 | 0.00 | 0.00 | 0.00 | 99 | 1015.8 |
| 20260906085510 | 67 | 124 | 0.0 | 0.0 | 0.00 | 0.00 | 0.00 | 99 | 1015.6 |
| 20260906085010 | 67 | 124 | 0.0 | 0.0 | 0.00 | 0.00 | 0.00 | 99 | 1015.7 |
| 20260906084509 | 67 | 124 | 0.0 | 0.0 | 0.00 | 0.00 | 0.00 | 99 | 1015.7 |
| 20260906084008 | 67 | 124 | 0.0 | 0.0 | 0.00 | 0.00 | 0.00 | 99 | 1015.7 |
| 20260906083504 | 67 | 124 | 0.0 | 0.0 | 0.00 | 0.00 | 0.00 | 99 | 1015.6 |
| 20260906083003 | 67 | 124 | 0.0 | 0.0 | 0.00 | 0.00 | 0.00 | 99 | 1015.7 |
| 20260906082459 | 67 | 124 | 0.0 | 0.0 | 0.00 | 0.00 | 0.00 | 99 | 1015.6 |
| 20260906081954 | 67 | 124 | 0.0 | 0.0 | 0.00 | 0.00 | 0.00 | 99 | 1015.5 |
| 20260906081449 | 67 | 124 | 0.0 | 0.0 | 0.00 | 0.00 | 0.00 | 99 | 1015.6 |
| 20260906080945 | 66 | 124 | 0.0 | 0.0 | 0.00 | 0.00 | 0.00 | 99 | 1015.6 |
| 20260906080442 | 66 | 124 | 0.0 | 0.0 | 0.00 | 0.00 | 0.00 | 99 | 1015.7 |
| 20260906075937 | 66 | 124 | 0.0 | 0.0 | 0.00 | 0.00 | 0.00 | 99 | 1015.6 |
| 20260906075432 | 66 | 124 | 0.0 | 0.0 | 0.00 | 0.00 | 0.00 | 99 | 1015.5 |
| 20260906074927 | 67 | 124 | 0.0 | 0.0 | 0.00 | 0.00 | 0.00 | 99 | 1015.6 |
| 20260906074427 | 67 | 124 | 0.0 | 0.0 | 0.00 | 0.00 | 0.00 | 99 | 1015.5 |
| 20260906073925 | 67 | 124 | 0.0 | 0.0 | 0.00 | 0.00 | 0.00 | 99 | 1015.7 |
| 20260906073420 | 66 | 124 | 0.0 | 0.0 | 0.00 | 0.00 | 0.00 | 99 | 1015.6 |
| 20260906072917 | 66 | 124 | 0.0 | 0.0 | 0.00 | 0.00 | 0.00 | 99 | 1015.5 |
| 20260906072412 | 66 | 124 | 0.0 | 0.0 | 0.00 | 0.00 | 0.00 | 99 | 1015.6 |
| 20260906071908 | 67 | 124 | 0.0 | 0.0 | 0.00 | 0.00 | 0.00 | 99 | 1015.5 |
| 20260906071403 | 67 | 124 | 0.0 | 0.0 | 0.00 | 0.00 | 0.00 | 99 | 1015.5 |
| 20260906070859 | 67 | 124 | 0.0 | 0.0 | 0.00 | 0.00 | 0.00 | 99 | 1015.5 |
| 20260906070355 | 67 | 124 | 0.0 | 0.0 | 0.00 | 0.00 | 0.00 | 99 | 1015.6 |
| 20260906065850 | 67 | 124 | 0.0 | 0.0 | 0.00 | 0.00 | 0.00 | 99 | 1015.8 |
| 20260906065344 | 67 | 124 | 0.0 | 0.0 | 0.00 | 0.00 | 0.00 | 99 | 1015.6 |
| 20260906064840 | 67 | 124 | 0.0 | 0.0 | 0.00 | 0.00 | 0.00 | 99 | 1015.4 |
| 20260906064336 | 67 | 124 | 0.0 | 0.0 | 0.00 | 0.00 | 0.00 | 99 | 1015.8 |
| 20260906063830 | 67 | 124 | 0.0 | 0.0 | 0.00 | 0.00 | 0.00 | 99 | 1015.7 |
| 20260906063326 | 67 | 124 | 0.0 | 0.0 | 0.00 | 0.00 | 0.00 | 99 | 1015.6 |
| 20260906062821 | 67 | 124 | 0.0 | 0.0 | 0.00 | 0.00 | 0.00 | 99 | 1015.6 |
| 20260906062320 | 67 | 124 | 0.0 | 0.0 | 0.00 | 0.00 | 0.00 | 99 | 1015.6 |
| 20260906061816 | 67 | 124 | 0.0 | 0.0 | 0.00 | 0.00 | 0.00 | 99 | 1015.8 |
| 20260906061313 | 67 | 124 | 0.0 | 0.0 | 0.00 | 0.00 | 0.00 | 99 | 1015.6 |
| 20260906060812 | 67 | 124 | 0.0 | 0.0 | 0.00 | 0.00 | 0.00 | 99 | 1015.6 |
| 20260906060311 | 67 | 124 | 0.0 | 0.0 | 0.00 | 0.00 | 0.00 | 99 | 1015.7 |
| 20260906055806 | 67 | 124 | 0.0 | 0.0 | 0.00 | 0.00 | 0.00 | 99 | 1015.9 |
| 20260906055301 | 67 | 124 | 0.0 | 0.0 | 0.00 | 0.00 | 0.00 | 99 | 1015.7 |
| 20260906054756 | 67 | 124 | 0.0 | 0.0 | 0.00 | 0.00 | 0.00 | 99 | 1015.7 |
| 20260906054252 | 67 | 124 | 0.0 | 0.0 | 0.00 | 0.00 | 0.00 | 99 | 1015.7 |
| 20260906053748 | 67 | 124 | 0.0 | 0.0 | 0.00 | 0.00 | 0.00 | 99 | 1015.7 |
| 20260906053244 | 68 | 124 | 0.0 | 0.0 | 0.00 | 0.00 | 0.00 | 99 | 1015.6 |
| 20260906052738 | 68 | 124 | 0.0 | 0.0 | 0.00 | 0.00 | 0.00 | 99 | 1015.6 |
| 20260906052235 | 68 | 124 | 0.0 | 0.0 | 0.00 | 0.00 | 0.00 | 99 | 1015.7 |
| 20260906051731 | 68 | 124 | 0.0 | 0.0 | 0.00 | 0.00 | 0.00 | 99 | 1015.7 |
| 20260906051231 | 68 | 124 | 0.0 | 0.0 | 0.00 | 0.00 | 0.00 | 99 | 1015.5 |
| 20260906050726 | 68 | 124 | 0.0 | 0.0 | 0.00 | 0.00 | 0.00 | 99 | 1015.6 |
| 20260906050222 | 68 | 124 | 0.0 | 0.0 | 0.00 | 0.00 | 0.00 | 99 | 1015.5 |
| 20260906045720 | 68 | 124 | 0.0 | 0.0 | 0.00 | 0.00 | 0.00 | 99 | 1015.5 |
| 20260906045215 | 68 | 124 | 0.0 | 0.0 | 0.00 | 0.00 | 0.00 | 99 | 1015.4 |
| 20260906044711 | 68 | 124 | 0.0 | 0.0 | 0.00 | 0.00 | 0.00 | 99 | 1015.5 |
| 20260906044206 | 68 | 124 | 0.0 | 0.0 | 0.00 | 0.00 | 0.00 | 99 | 1015.7 |
| 20260906043702 | 68 | 124 | 0.0 | 0.0 | 0.00 | 0.00 | 0.00 | 99 | 1015.4 |
| 20260906043157 | 68 | 124 | 0.0 | 0.0 | 0.00 | 0.00 | 0.00 | 99 | 1015.3 |
| 20260906042657 | 68 | 124 | 0.0 | 0.0 | 0.00 | 0.00 | 0.00 | 99 | 1015.6 |
| 20260906042150 | 68 | 123 | 0.0 | 0.0 | 0.00 | 0.00 | 0.00 | 99 | 1015.5 |
| 20260906041646 | 68 | 123 | 0.0 | 0.0 | 0.00 | 0.00 | 0.00 | 99 | 1015.3 |
| 20260906041141 | 68 | 123 | 0.0 | 0.0 | 0.00 | 0.00 | 0.00 | 99 | 1015.4 |
| 20260906040632 | 68 | 124 | 0.0 | 0.0 | 0.00 | 0.00 | 0.00 | 99 | 1015.4 |
| 20260906040127 | 69 | 123 | 0.0 | 0.0 | 0.00 | 0.48 | 0.48 | 99 | 1015.5 |
| 20260906035622 | 68 | 122 | 0.0 | 0.0 | 0.00 | 0.48 | 0.48 | 99 | 1015.3 |
| 20260906035118 | 68 | 122 | 0.0 | 0.0 | 0.00 | 0.48 | 0.48 | 99 | 1015.5 |
| 20260906034617 | 69 | 122 | 0.0 | 0.0 | 0.00 | 0.48 | 0.48 | 99 | 1015.6 |
| 20260906034112 | 69 | 122 | 0.0 | 0.0 | 0.00 | 0.48 | 0.48 | 99 | 1015.6 |
| 20260906033608 | 69 | 122 | 0.0 | 0.0 | 0.00 | 0.48 | 0.48 | 99 | 1015.9 |
| 20260906033103 | 69 | 120 | 0.0 | 0.0 | 0.00 | 0.48 | 0.48 | 99 | 1015.9 |
| 20260906032559 | 69 | 120 | 0.0 | 0.0 | 0.00 | 0.48 | 0.48 | 99 | 1015.7 |
| 20260906032059 | 69 | 120 | 0.0 | 0.0 | 0.00 | 0.48 | 0.48 | 99 | 1015.8 |
| 20260906031554 | 69 | 120 | 0.0 | 0.0 | 0.00 | 0.48 | 0.48 | 99 | 1015.9 |
| 20260906031050 | 69 | 120 | 0.0 | 0.0 | 0.00 | 0.48 | 0.48 | 99 | 1015.9 |
| 20260906030549 | 69 | 120 | 0.0 | 0.0 | 0.00 | 0.48 | 0.48 | 99 | 1016.0 |
| 20260906030049 | 69 | 120 | 0.0 | 0.0 | 0.00 | 0.48 | 0.48 | 99 | 1016.1 |
| 20260906025543 | 69 | 120 | 0.0 | 0.0 | 0.00 | 0.48 | 0.48 | 99 | 1016.2 |
| 20260906025041 | 69 | 120 | 0.0 | 0.0 | 0.00 | 0.48 | 0.48 | 99 | 1016.2 |
| 20260906024537 | 69 | 121 | 0.0 | 0.0 | 0.00 | 0.48 | 0.48 | 99 | 1016.3 |
| 20260906024037 | 69 | 121 | 0.0 | 0.0 | 0.00 | 0.48 | 0.48 | 99 | 1016.2 |
| 20260906023533 | 69 | 122 | 0.0 | 0.0 | 0.00 | 0.48 | 0.48 | 99 | 1016.1 |
| 20260906023028 | 69 | 122 | 0.0 | 0.0 | 0.00 | 0.48 | 0.48 | 99 | 1016.1 |
| 20260906022523 | 70 | 121 | 0.0 | 0.0 | 0.00 | 0.48 | 0.48 | 99 | 1015.9 |
| 20260906022019 | 70 | 122 | 0.0 | 1.0 | 0.00 | 0.48 | 0.48 | 99 | 1015.9 |
| 20260906021514 | 69 | 117 | 0.0 | 1.0 | 0.00 | 0.48 | 0.48 | 99 | 1016.1 |
| 20260906021009 | 69 | 118 | 0.0 | 0.0 | 0.00 | 0.48 | 0.48 | 99 | 1016.0 |
| 20260906020507 | 69 | 118 | 0.0 | 0.0 | 0.00 | 0.48 | 0.48 | 99 | 1016.0 |
| 20260906020007 | 69 | 118 | 0.0 | 0.0 | 0.00 | 0.48 | 0.48 | 99 | 1016.1 |
| 20260906015501 | 69 | 119 | 0.0 | 0.0 | 0.00 | 0.48 | 0.48 | 99 | 1015.8 |
| 20260906015000 | 69 | 119 | 0.0 | 0.0 | 0.00 | 0.48 | 0.48 | 99 | 1015.7 |
| 20260906014455 | 69 | 121 | 0.0 | 0.0 | 0.00 | 0.48 | 0.48 | 99 | 1015.7 |
| 20260906013951 | 69 | 119 | 0.0 | 0.0 | 0.00 | 0.48 | 0.48 | 99 | 1015.9 |
| 20260906013446 | 70 | 120 | 0.0 | 0.0 | 0.00 | 0.48 | 0.48 | 99 | 1015.5 |
| 20260906012942 | 70 | 120 | 0.0 | 0.0 | 0.00 | 0.48 | 0.48 | 99 | 1015.4 |
| 20260906012436 | 70 | 120 | 0.0 | 0.0 | 0.00 | 0.48 | 0.48 | 99 | 1015.5 |
| 20260906011936 | 70 | 115 | 0.0 | 0.0 | 0.00 | 0.48 | 0.48 | 99 | 1015.4 |
| 20260906011431 | 70 | 115 | 0.0 | 0.0 | 0.00 | 0.48 | 0.48 | 99 | 1015.5 |
| 20260906010926 | 70 | 115 | 0.0 | 0.0 | 0.00 | 0.48 | 0.48 | 99 | 1015.2 |
| 20260906010422 | 70 | 111 | 0.0 | 0.0 | 0.00 | 0.48 | 0.48 | 99 | 1015.3 |
| 20260906005918 | 70 | 132 | 0.0 | 0.0 | 0.00 | 0.48 | 0.48 | 99 | 1015.1 |
| 20260906005417 | 70 | 130 | 0.0 | 0.0 | 0.00 | 0.48 | 0.48 | 99 | 1015.2 |
| 20260906004915 | 70 | 129 | 0.0 | 0.0 | 0.00 | 0.48 | 0.48 | 99 | 1014.9 |
| 20260906004410 | 71 | 140 | 0.0 | 0.0 | 0.00 | 0.48 | 0.48 | 99 | 1015.0 |
| 20260906003906 | 71 | 95 | 0.0 | 0.0 | 0.00 | 0.48 | 0.48 | 99 | 1015.0 |
| 20260906003401 | 71 | 95 | 0.0 | 0.0 | 0.00 | 0.48 | 0.48 | 99 | 1014.7 |
| 20260906002857 | 71 | 95 | 0.0 | 0.0 | 0.00 | 0.48 | 0.48 | 99 | 1014.7 |
| 20260906002355 | 71 | 95 | 0.0 | 0.0 | 0.00 | 0.48 | 0.48 | 99 | 1014.8 |
| 20260906001851 | 72 | 95 | 0.0 | 0.0 | 0.00 | 0.48 | 0.48 | 99 | 1014.9 |
| 20260906001347 | 72 | 93 | 0.0 | 0.0 | 0.00 | 0.48 | 0.48 | 99 | 1014.9 |
| 20260906000842 | 72 | 93 | 0.0 | 0.0 | 0.00 | 0.48 | 0.48 | 99 | 1014.8 |
| 20260906000337 | 72 | 93 | 0.0 | 0.0 | 0.00 | 0.48 | 0.48 | 99 | 1014.9 |
| 20260905235836 | 72 | 93 | 0.0 | 0.0 | 0.00 | 0.48 | 0.48 | 99 | 1015.0 |
| 20260905235331 | 73 | 93 | 0.0 | 0.0 | 0.00 | 0.48 | 0.48 | 99 | 1015.0 |
| 20260905234826 | 73 | 93 | 0.0 | 0.0 | 0.00 | 0.48 | 0.48 | 98 | 1015.1 |
| 20260905234321 | 73 | 93 | 0.0 | 0.0 | 0.00 | 0.48 | 0.48 | 98 | 1014.8 |
| 20260905233816 | 73 | 93 | 0.0 | 0.0 | 0.00 | 0.48 | 0.48 | 98 | 1015.0 |
| 20260905233311 | 73 | 93 | 0.0 | 0.0 | 0.00 | 0.48 | 0.48 | 98 | 1015.0 |
| 20260905232810 | 74 | 93 | 0.0 | 0.0 | 0.00 | 0.48 | 0.48 | 97 | 1015.0 |
| 20260905232307 | 74 | 93 | 0.0 | 0.0 | 0.00 | 0.48 | 0.48 | 97 | 1014.9 |
| 20260905231802 | 74 | 93 | 0.0 | 0.0 | 0.00 | 0.48 | 0.48 | 96 | 1014.8 |
| 20260905231257 | 74 | 93 | 0.0 | 0.0 | 0.00 | 0.48 | 0.48 | 96 | 1015.0 |
| 20260905230753 | 75 | 93 | 0.0 | 0.0 | 0.00 | 0.48 | 0.48 | 95 | 1014.9 |
| 20260905230251 | 75 | 93 | 0.0 | 0.0 | 0.00 | 0.48 | 0.48 | 95 | 1014.8 |
| 20260905225751 | 75 | 93 | 0.0 | 0.0 | 0.00 | 0.48 | 0.48 | 94 | 1015.0 |
| 20260905225246 | 75 | 93 | 0.0 | 0.0 | 0.00 | 0.48 | 0.48 | 94 | 1014.8 |
| 20260905224745 | 76 | 94 | 0.0 | 0.0 | 0.00 | 0.48 | 0.48 | 93 | 1014.9 |
| 20260905224241 | 76 | 94 | 0.0 | 0.0 | 0.00 | 0.48 | 0.48 | 93 | 1014.9 |
| 20260905223737 | 76 | 96 | 0.0 | 0.0 | 0.00 | 0.48 | 0.48 | 92 | 1014.7 |
| 20260905223234 | 76 | 96 | 0.0 | 0.0 | 0.00 | 0.48 | 0.48 | 92 | 1015.0 |
| 20260905222729 | 77 | 95 | 0.0 | 1.0 | 0.00 | 0.48 | 0.48 | 91 | 1015.0 |
| 20260905222228 | 77 | 95 | 0.0 | 0.0 | 0.00 | 0.48 | 0.48 | 89 | 1015.3 |
| 20260905221724 | 78 | 97 | 0.0 | 1.0 | 0.00 | 0.48 | 0.48 | 89 | 1015.1 |
| 20260905221221 | 78 | 96 | 1.0 | 2.0 | 0.00 | 0.48 | 0.48 | 87 | 1015.0 |
| 20260905220717 | 78 | 95 | 0.0 | 0.0 | 0.00 | 0.48 | 0.48 | 89 | 1015.1 |
| 20260905220212 | 79 | 95 | 0.0 | 0.0 | 0.00 | 0.48 | 0.48 | 88 | 1015.1 |
| 20260905215712 | 79 | 95 | 0.0 | 1.0 | 0.00 | 0.48 | 0.48 | 87 | 1015.1 |
| 20260905215208 | 79 | 95 | 0.0 | 1.0 | 0.00 | 0.48 | 0.48 | 85 | 1015.0 |
| 20260905214703 | 80 | 95 | 1.0 | 2.0 | 0.00 | 0.48 | 0.48 | 82 | 1014.8 |
| 20260905214158 | 82 | 94 | 1.0 | 2.0 | 0.00 | 0.48 | 0.48 | 80 | 1014.9 |
| 20260905213653 | 82 | 94 | 0.0 | 0.0 | 0.00 | 0.48 | 0.48 | 73 | 1014.8 |
| 20260905213149 | 84 | 94 | 0.0 | 1.0 | 0.00 | 0.48 | 0.48 | 71 | 1014.7 |
| 20260905212644 | 83 | 93 | 1.0 | 2.0 | 0.00 | 0.48 | 0.48 | 73 | 1014.8 |
| 20260905212144 | 82 | 94 | 1.0 | 1.0 | 0.00 | 0.48 | 0.48 | 75 | 1014.7 |
| 20260905211638 | 82 | 94 | 0.0 | 1.0 | 0.00 | 0.48 | 0.48 | 78 | 1014.7 |
| 20260905211134 | 82 | 96 | 1.0 | 1.0 | 0.00 | 0.48 | 0.48 | 78 | 1014.7 |
| 20260905210630 | 81 | 95 | 0.0 | 0.0 | 0.00 | 0.48 | 0.48 | 82 | 1014.6 |
| 20260905210125 | 79 | 95 | 0.0 | 0.0 | 0.00 | 0.48 | 0.48 | 86 | 1014.7 |
| 20260905205625 | 79 | 94 | 0.0 | 0.0 | 0.00 | 0.48 | 0.48 | 85 | 1014.8 |
| 20260905205124 | 79 | 95 | 0.0 | 1.0 | 0.00 | 0.48 | 0.48 | 85 | 1014.7 |
| 20260905204623 | 80 | 96 | 0.0 | 2.0 | 0.00 | 0.48 | 0.48 | 84 | 1014.6 |
| 20260905204119 | 82 | 96 | 1.0 | 1.0 | 0.00 | 0.48 | 0.48 | 81 | 1014.8 |
| 20260905203619 | 81 | 95 | 0.0 | 1.0 | 0.00 | 0.48 | 0.48 | 79 | 1014.9 |
| 20260905203114 | 82 | 93 | 0.0 | 4.0 | 0.00 | 0.48 | 0.48 | 75 | 1014.7 |
| 20260905202609 | 83 | 94 | 1.0 | 2.0 | 0.00 | 0.48 | 0.48 | 74 | 1014.8 |
| 20260905202104 | 83 | 92 | 2.0 | 3.0 | 0.00 | 0.48 | 0.48 | 75 | 1014.9 |
| 20260905201600 | 82 | 92 | 2.0 | 2.0 | 0.00 | 0.48 | 0.48 | 79 | 1014.9 |
| 20260905201100 | 82 | 94 | 0.0 | 0.0 | 0.00 | 0.48 | 0.48 | 81 | 1015.0 |
| 20260905200555 | 82 | 94 | 0.0 | 0.0 | 0.00 | 0.48 | 0.48 | 81 | 1014.9 |
| 20260905200050 | 81 | 94 | 0.0 | 1.0 | 0.00 | 0.48 | 0.48 | 80 | 1014.9 |
| 20260905195543 | 82 | 93 | 1.0 | 1.0 | 0.00 | 0.48 | 0.48 | 80 | 1015.1 |
| 20260905195039 | 80 | 94 | 0.0 | 1.0 | 0.00 | 0.48 | 0.48 | 82 | 1015.0 |
| 20260905194539 | 80 | 93 | 0.0 | 2.0 | 0.00 | 0.48 | 0.48 | 84 | 1015.1 |
| 20260905194038 | 80 | 94 | 0.0 | 0.0 | 0.00 | 0.48 | 0.48 | 83 | 1015.1 |
| 20260905193533 | 81 | 94 | 1.0 | 1.0 | 0.00 | 0.48 | 0.48 | 82 | 1015.2 |
| 20260905193029 | 81 | 95 | 0.0 | 0.0 | 0.00 | 0.48 | 0.48 | 81 | 1015.4 |
| 20260905192524 | 81 | 94 | 0.0 | 1.0 | 0.00 | 0.48 | 0.48 | 77 | 1015.4 |
| 20260905192020 | 83 | 95 | 0.0 | 2.0 | 0.00 | 0.48 | 0.48 | 75 | 1015.4 |
| 20260905191518 | 82 | 94 | 0.0 | 1.0 | 0.00 | 0.48 | 0.48 | 72 | 1015.7 |
| 20260905191018 | 83 | 94 | 1.0 | 3.0 | 0.00 | 0.48 | 0.48 | 72 | 1015.5 |
| 20260905190516 | 83 | 93 | 0.0 | 2.0 | 0.00 | 0.48 | 0.48 | 71 | 1015.8 |
| 20260905190015 | 82 | 94 | 1.0 | 1.0 | 0.00 | 0.48 | 0.48 | 72 | 1015.7 |
| 20260905185510 | 82 | 94 | 1.0 | 2.0 | 0.00 | 0.48 | 0.48 | 74 | 1015.8 |
| 20260905185009 | 82 | 95 | 0.0 | 1.0 | 0.00 | 0.48 | 0.48 | 75 | 1016.0 |
| 20260905184504 | 82 | 96 | 1.0 | 2.0 | 0.00 | 0.48 | 0.48 | 76 | 1016.0 |
| 20260905184003 | 81 | 96 | 1.0 | 3.0 | 0.00 | 0.48 | 0.48 | 76 | 1015.9 |
| 20260905183503 | 81 | 96 | 1.0 | 2.0 | 0.00 | 0.48 | 0.48 | 78 | 1016.0 |
| 20260905183003 | 81 | 95 | 0.0 | 1.0 | 0.00 | 0.48 | 0.48 | 76 | 1016.0 |
| 20260905182502 | 82 | 95 | 0.0 | 3.0 | 0.00 | 0.48 | 0.48 | 76 | 1016.1 |
| 20260905181958 | 81 | 95 | 1.0 | 2.0 | 0.00 | 0.48 | 0.48 | 77 | 1016.1 |
| 20260905181453 | 80 | 95 | 0.0 | 0.0 | 0.00 | 0.48 | 0.48 | 84 | 1016.3 |
| 20260905180952 | 81 | 100 | 1.0 | 4.0 | 0.00 | 0.48 | 0.48 | 79 | 1016.3 |
| 20260905180452 | 81 | 91 | 2.0 | 2.0 | 0.00 | 0.48 | 0.48 | 79 | 1016.1 |
| 20260905175947 | 81 | 93 | 0.0 | 0.0 | 0.00 | 0.48 | 0.48 | 79 | 1016.2 |
| 20260905175446 | 80 | 98 | 0.0 | 1.0 | 0.00 | 0.48 | 0.48 | 80 | 1016.2 |
| 20260905174942 | 80 | 95 | 0.0 | 0.0 | 0.00 | 0.48 | 0.48 | 76 | 1016.1 |
| 20260905174437 | 78 | 94 | 1.0 | 1.0 | 0.00 | 0.48 | 0.48 | 81 | 1016.2 |
| 20260905173933 | 78 | 93 | 1.0 | 2.0 | 0.00 | 0.48 | 0.48 | 83 | 1016.2 |
| 20260905173429 | 78 | 93 | 1.0 | 2.0 | 0.00 | 0.48 | 0.48 | 82 | 1016.1 |
| 20260905172925 | 79 | 96 | 0.0 | 1.0 | 0.00 | 0.48 | 0.48 | 81 | 1016.4 |
| 20260905172422 | 78 | 97 | 1.0 | 1.0 | 0.00 | 0.48 | 0.48 | 85 | 1016.3 |
| 20260905171918 | 77 | 102 | 1.0 | 2.0 | 0.00 | 0.48 | 0.48 | 84 | 1016.3 |
| 20260905171415 | 77 | 93 | 0.0 | 2.0 | 0.00 | 0.48 | 0.48 | 91 | 1016.6 |
| 20260905170911 | 77 | 94 | 0.0 | 1.0 | 0.00 | 0.48 | 0.48 | 85 | 1016.6 |
| 20260905170407 | 77 | 94 | 0.0 | 0.0 | 0.00 | 0.48 | 0.48 | 90 | 1016.7 |
| 20260905165906 | 77 | 94 | 0.0 | 2.0 | 0.00 | 0.48 | 0.48 | 91 | 1016.9 |
| 20260905165401 | 76 | 93 | 0.0 | 1.0 | 0.00 | 0.48 | 0.48 | 90 | 1017.0 |
| 20260905164855 | 78 | 93 | 0.0 | 1.0 | 0.00 | 0.48 | 0.48 | 88 | 1017.3 |
| 20260905164350 | 78 | 91 | 1.0 | 2.0 | 0.00 | 0.48 | 0.48 | 87 | 1017.3 |
| 20260905163846 | 77 | 93 | 0.0 | 0.0 | 0.00 | 0.48 | 0.48 | 86 | 1017.6 |
| 20260905163342 | 77 | 93 | 0.0 | 2.0 | 0.00 | 0.48 | 0.48 | 87 | 1017.7 |
| 20260905162838 | 76 | 94 | 1.0 | 2.0 | 0.00 | 0.48 | 0.48 | 88 | 1017.9 |
| 20260905162337 | 76 | 95 | 0.0 | 0.0 | 0.00 | 0.48 | 0.48 | 94 | 1017.8 |
| 20260905161832 | 74 | 94 | 0.0 | 0.0 | 0.00 | 0.48 | 0.48 | 96 | 1017.6 |
| 20260905161332 | 74 | 93 | 0.0 | 0.0 | 0.00 | 0.48 | 0.48 | 97 | 1017.5 |
| 20260905160830 | 74 | 94 | 0.0 | 0.0 | 0.00 | 0.48 | 0.48 | 96 | 1017.5 |
| 20260905160325 | 75 | 95 | 0.0 | 0.0 | 0.00 | 0.48 | 0.48 | 96 | 1017.6 |
| 20260905155819 | 75 | 94 | 0.0 | 0.0 | 0.00 | 0.48 | 0.48 | 95 | 1017.6 |
| 20260905155318 | 75 | 92 | 0.0 | 2.0 | 0.00 | 0.48 | 0.48 | 91 | 1017.7 |
| 20260905154813 | 76 | 93 | 0.0 | 0.0 | 0.00 | 0.48 | 0.48 | 92 | 1017.8 |
| 20260905154309 | 75 | 93 | 0.0 | 3.0 | 0.00 | 0.48 | 0.48 | 94 | 1017.8 |
| 20260905153804 | 75 | 91 | 2.0 | 2.0 | 0.00 | 0.48 | 0.48 | 92 | 1017.7 |
| 20260905153300 | 75 | 94 | 0.0 | 0.0 | 0.00 | 0.48 | 0.48 | 97 | 1017.8 |
| 20260905152754 | 74 | 93 | 0.0 | 0.0 | 0.00 | 0.48 | 0.48 | 99 | 1017.7 |
| 20260905152253 | 73 | 93 | 0.0 | 0.0 | 0.00 | 0.48 | 0.48 | 99 | 1017.7 |
| 20260905151753 | 73 | 93 | 1.0 | 1.0 | 0.00 | 0.48 | 0.48 | 99 | 1017.5 |
| 20260905151249 | 73 | 95 | 0.0 | 0.0 | 0.00 | 0.48 | 0.48 | 99 | 1017.5 |
| 20260905150744 | 72 | 93 | 0.0 | 1.0 | 0.00 | 0.48 | 0.48 | 99 | 1017.4 |
| 20260905150243 | 72 | 92 | 1.0 | 2.0 | 0.00 | 0.48 | 0.48 | 99 | 1017.3 |
| 20260905145740 | 72 | 95 | 0.0 | 1.0 | 0.00 | 0.48 | 0.48 | 99 | 1017.2 |
| 20260905145236 | 72 | 91 | 2.0 | 2.0 | 0.00 | 0.48 | 0.48 | 99 | 1017.0 |
| 20260905144734 | 71 | 89 | 2.0 | 3.0 | 0.00 | 0.48 | 0.48 | 99 | 1016.7 |
| 20260905144230 | 72 | 94 | 0.0 | 0.0 | 0.00 | 0.48 | 0.48 | 99 | 1016.4 |
| 20260905143723 | 72 | 93 | 1.0 | 2.0 | 0.00 | 0.48 | 0.48 | 99 | 1016.3 |
| 20260905143223 | 71 | 99 | 0.0 | 1.0 | 0.00 | 0.48 | 0.48 | 99 | 1015.8 |
| 20260905142721 | 72 | 109 | 2.0 | 2.0 | 0.00 | 0.48 | 0.48 | 99 | 1015.7 |
| 20260905142216 | 72 | 95 | 0.0 | 1.0 | 0.00 | 0.48 | 0.48 | 99 | 1015.9 |
| 20260905141712 | 71 | 100 | 1.0 | 2.0 | 0.00 | 0.48 | 0.48 | 99 | 1016.2 |
| 20260905141208 | 71 | 98 | 0.0 | 1.0 | 0.00 | 0.48 | 0.48 | 99 | 1016.4 |
| 20260905140702 | 71 | 101 | 1.0 | 1.0 | 0.00 | 0.48 | 0.48 | 99 | 1016.4 |
| 20260905140157 | 71 | 97 | 0.0 | 0.0 | 0.00 | 0.48 | 0.48 | 99 | 1016.2 |
| 20260905135651 | 71 | 98 | 0.0 | 0.0 | 0.00 | 0.48 | 0.48 | 99 | 1016.3 |
| 20260905135142 | 71 | 97 | 0.0 | 0.0 | 0.00 | 0.48 | 0.48 | 99 | 1016.6 |
| 20260905134641 | 71 | 99 | 0.0 | 0.0 | 0.00 | 0.48 | 0.48 | 99 | 1017.2 |
| 20260905134140 | 70 | 96 | 0.0 | 0.0 | 0.00 | 0.48 | 0.48 | 99 | 1016.9 |
| 20260905133636 | 70 | 95 | 0.0 | 1.0 | 0.00 | 0.48 | 0.48 | 99 | 1017.4 |
| 20260905133135 | 70 | 98 | 0.0 | 0.0 | 0.00 | 0.48 | 0.48 | 99 | 1017.0 |
| 20260905132635 | 70 | 98 | 0.0 | 0.0 | 0.00 | 0.48 | 0.48 | 99 | 1017.2 |
| 20260905132130 | 70 | 98 | 0.0 | 0.0 | 0.00 | 0.48 | 0.48 | 99 | 1017.0 |
| 20260905131626 | 70 | 98 | 0.0 | 0.0 | 0.00 | 0.48 | 0.48 | 99 | 1017.4 |
| 20260905131121 | 69 | 98 | 0.0 | 0.0 | 0.00 | 0.48 | 0.48 | 99 | 1017.6 |
| 20260905130621 | 69 | 97 | 0.0 | 0.0 | 0.00 | 0.48 | 0.48 | 99 | 1017.5 |
| 20260905130115 | 69 | 98 | 0.0 | 0.0 | 0.00 | 0.48 | 0.48 | 99 | 1017.6 |
| 20260905125614 | 69 | 98 | 0.0 | 0.0 | 0.00 | 0.48 | 0.48 | 99 | 1017.6 |
| 20260905125110 | 69 | 96 | 0.0 | 0.0 | 0.00 | 0.48 | 0.48 | 99 | 1017.5 |
| 20260905124607 | 69 | 96 | 0.0 | 0.0 | 0.05 | 0.48 | 0.48 | 99 | 1017.6 |
| 20260905124102 | 69 | 96 | 0.0 | 0.0 | 0.05 | 0.48 | 0.48 | 99 | 1017.4 |
| 20260905123557 | 69 | 98 | 0.0 | 0.0 | 0.00 | 0.47 | 0.47 | 99 | 1017.5 |
| 20260905123055 | 69 | 95 | 0.0 | 0.0 | 0.07 | 0.47 | 0.47 | 99 | 1017.5 |
| 20260905122554 | 69 | 96 | 0.0 | 0.0 | 0.19 | 0.46 | 0.46 | 99 | 1017.9 |